date,time,DOY,Ta_1_1_1,Pa_1_1_1,RH_1_1_1,LWin_1_1_1,LWout_1_1_1,SWin_1_1_1,SWout_1_1_1,PPFD_1_1_1,MWS_1_1_1,WD_1_1_1,SWC_1_1_1,Ts_1_1_1
[yyyy-mm-dd],[HH:MM],[ddd.ddd],[K],[Pa],[%],[W+1m-2],[W+1m-2],[W+1m-2],[W+1m-2],[µmol+1m-2s-1],[m+1s-1],[deg],[m+3m-3],[K]
2018-11-27,00:30,331.020,264.96100000000001,94460.366666666669,81.435000000000002,281.20533333333333,274.76533333333333,0.14066666666666669,-0.33999999999999997,2.00000000000000004E-003,4.0100000000000007,244.61133333333333,0.30999999999999989,274.96566666666666
2018-11-27,01:00,331.041,264.84999999999997,94444.500000000000,81.302000000000007,280.78233333333327,274.36399999999998,0.12966666666666674,-0.33200000000000002,0.0000000000000000,4.0833333333333330,243.51100000000000,0.30999999999999989,274.96333333333337
2018-11-27,01:30,331.062,264.72100000000000,94425.100000000006,81.125666666666675,280.21433333333334,273.84800000000001,9.60000000000000575E-002,-0.33733333333333326,5.00000000000000010E-003,5.1933333333333334,231.51133333333334,0.30999999999999989,274.95400000000001
2018-11-27,02:00,331.083,264.52766666666668,94408.633333333331,80.350666666666683,279.42866666666669,272.40899999999999,9.90000000000000463E-002,-0.40399999999999991,-6.00000000000000012E-003,5.2866666666666662,246.41100000000000,0.30999999999999989,274.95399999999995
2018-11-27,02:30,331.104,264.43466666666666,94393.666666666672,79.745333333333335,278.86766666666665,271.08833333333337,0.15600000000000003,-0.42533333333333340,4.00000000000000008E-003,4.4433333333333325,246.79966666666667,0.30999999999999989,274.94799999999998
2018-11-27,03:00,331.124,264.35999999999990,94381.899999999994,79.679666666666662,278.54066666666660,271.00066666666663,0.16333333333333336,-0.40533333333333327,-1.00000000000000002E-003,5.1266666666666678,252.16533333333331,0.30999999999999989,274.94266666666658
2018-11-27,03:30,331.145,264.35999999999990,94369.300000000003,79.601000000000013,278.38633333333331,270.31266666666670,0.15700000000000003,-0.47133333333333322,-8.00000000000000017E-003,5.1866666666666665,246.33333333333334,0.30999999999999989,274.94166666666661
2018-11-27,04:00,331.166,264.29566666666682,94351.866666666669,79.215333333333334,278.08566666666673,269.40733333333333,0.23266666666666677,-0.59666666666666646,2.00000000000000004E-003,5.2466666666666670,241.97866666666667,0.30999999999999989,274.92733333333331
2018-11-27,04:30,331.187,264.12200000000013,94326.600000000006,79.814333333333323,277.33166666666665,265.14233333333334,0.18033333333333335,-0.67466666666666664,-4.00000000000000008E-003,5.8366666666666687,235.76633333333334,0.30999999999999989,274.92433333333327
2018-11-27,05:00,331.208,263.92333333333323,94320.633333333331,79.539666666666662,276.54933333333338,265.49033333333335,0.17266666666666669,-0.61399999999999999,-2.00000000000000004E-003,4.9866666666666655,240.60033333333334,0.30999999999999989,274.91833333333335
2018-11-27,05:30,331.229,263.68900000000014,94320.633333333331,80.172333333333356,275.48766666666666,261.04000000000002,0.18833333333333341,-0.73599999999999999,2.00000000000000004E-003,4.7333333333333325,248.57766666666669,0.30999999999999989,274.91533333333331
2018-11-27,06:00,331.249,263.45099999999991,94318.833333333328,81.049999999999983,274.95933333333335,268.42533333333336,0.11466666666666672,-0.34633333333333333,-1.00000000000000002E-003,4.6633333333333331,247.13300000000001,0.30999999999999989,274.90766666666667
2018-11-27,06:30,331.270,263.35999999999990,94321.566666666666,81.462666666666664,274.72833333333335,269.30266666666665,0.10633333333333338,-0.26066666666666666,7.00000000000000015E-003,4.4766666666666657,245.94466666666668,0.30999999999999989,274.90633333333329
2018-11-27,07:00,331.291,263.35999999999990,94309.600000000006,81.867333333333349,274.68333333333334,269.53333333333330,0.10366666666666670,-0.20333333333333342,6.00000000000000012E-003,4.7399999999999993,243.88933333333335,0.30999999999999989,274.90099999999995
2018-11-27,07:30,331.312,263.27000000000015,94308.000000000000,82.432000000000002,274.43666666666667,269.61999999999995,1.99999999999999969E-002,-0.18466666666666670,-2.00000000000000004E-003,4.7233333333333327,242.84433333333334,0.30999999999999989,274.89600000000002
2018-11-27,08:00,331.333,263.17199999999991,94309.566666666666,82.626333333333335,274.13899999999995,270.14533333333333,-6.83333333333333570E-002,3.96666666666666626E-002,1.00000000000000002E-003,4.3999999999999995,239.22233333333332,0.30999999999999989,274.89566666666661
2018-11-27,08:30,331.354,263.15999999999991,94313.699999999997,82.165666666666681,273.85800000000000,271.00266666666670,5.13333333333333489E-002,-0.11866666666666668,-2.00000000000000004E-003,3.6299999999999999,245.21066666666667,0.30999999999999989,274.88366666666667
2018-11-27,09:00,331.374,263.07766666666686,94321.333333333328,82.275333333333322,273.56066666666663,270.48266666666672,4.80000000000000149E-002,-0.17333333333333337,3.00000000000000006E-003,4.4133333333333331,246.15633333333335,0.30999999999999989,274.88633333333331
2018-11-27,09:30,331.395,263.03333333333342,94301.133333333331,81.909666666666681,273.20866666666660,269.52599999999995,0.10866666666666672,-0.35333333333333339,-4.00000000000000008E-003,4.0866666666666651,243.13199999999998,0.30999999999999989,274.87966666666671
2018-11-27,10:00,331.416,262.93766666666664,94289.600000000006,81.049666666666681,272.59099999999995,267.77366666666671,0.16666666666666669,-0.52999999999999992,-3.00000000000000006E-003,3.8633333333333342,252.54433333333333,0.30999999999999989,274.87433333333337
2018-11-27,10:30,331.437,262.83233333333339,94300.199999999997,80.352333333333348,272.20566666666667,267.74799999999999,0.16966666666666666,-0.53600000000000003,-2.00000000000000004E-003,3.9933333333333327,249.29966666666667,0.30999999999999989,274.87766666666664
2018-11-27,11:00,331.458,262.72433333333333,94287.866666666669,80.167666666666648,271.69799999999998,266.26833333333332,0.19633333333333336,-0.59333333333333338,-2.00000000000000004E-003,3.7166666666666681,236.71133333333333,0.30999999999999989,274.87433333333337
2018-11-27,11:30,331.479,262.59333333333353,94291.233333333337,79.551333333333346,270.95400000000001,263.56500000000000,0.29199999999999993,-0.80000000000000038,-2.00000000000000004E-003,3.8666666666666671,248.44500000000002,0.30999999999999989,274.86999999999995
2018-11-27,12:00,331.499,262.42999999999995,94293.033333333340,78.923666666666662,270.38800000000009,262.88700000000000,0.31799999999999995,-0.80300000000000005,3.00000000000000006E-003,3.7966666666666669,245.36633333333333,0.30999999999999989,274.86599999999999
2018-11-27,12:30,331.520,262.30233333333348,94298.066666666666,78.555000000000021,270.08100000000007,263.56066666666663,0.30066666666666664,-0.67933333333333323,5.00000000000000010E-003,3.6133333333333337,248.06666666666666,0.30999999999999989,274.86499999999995
2018-11-27,13:00,331.541,262.16666666666657,94310.233333333337,78.195666666666654,269.48566666666670,261.91833333333341,0.32266666666666660,-0.64599999999999969,0.15466666666666665,3.6933333333333334,249.66700000000000,0.30999999999999989,274.86133333333328
2018-11-27,13:30,331.562,262.03233333333338,94310.399999999994,78.365333333333353,268.41900000000004,251.40666666666672,1.8636666666666666,5.4269999999999987,10.730999999999998,4.3799999999999999,238.35499999999999,0.30999999999999989,274.85966666666656
2018-11-27,14:00,331.583,261.95900000000006,94305.533333333340,79.293333333333337,268.82466666666664,256.41966666666673,6.8040000000000003,27.981666666666673,48.236666666666679,4.0366666666666653,242.78933333333333,0.30999999999999989,274.85433333333339
2018-11-27,14:30,331.604,262.00666666666683,94307.600000000006,78.576999999999998,269.72633333333334,260.67966666666666,9.4453333333333340,41.701666666666668,84.416666666666671,3.6700000000000004,244.52233333333334,0.30999999999999989,274.85066666666665
2018-11-27,15:00,331.624,262.23433333333332,94309.133333333331,77.948333333333323,271.27799999999996,260.40566666666660,20.786333333333339,92.970666666666659,179.11166666666674,3.7866666666666666,241.71166666666667,0.30999999999999989,274.85033333333337
2018-11-27,15:30,331.645,262.30466666666678,94312.566666666666,78.769000000000005,271.48866666666669,262.62900000000008,15.634000000000002,70.588666666666668,147.85366666666670,4.1566666666666672,240.48900000000000,0.30999999999999989,274.84266666666673
2018-11-27,16:00,331.666,262.71999999999997,94310.100000000006,78.051333333333332,273.76366666666667,257.97533333333337,30.702333333333332,143.05533333333332,287.18299999999999,3.6700000000000004,251.03366666666668,0.30999999999999989,274.84566666666672
2018-11-27,16:30,331.687,263.53366666666682,94299.933333333334,75.093333333333334,277.65666666666664,263.03633333333335,40.114666666666679,187.15866666666662,371.52999999999992,4.0100000000000007,249.15533333333332,0.30999999999999989,274.84066666666672
2018-11-27,17:00,331.708,263.80099999999999,94285.300000000003,73.618333333333354,279.01500000000004,267.36133333333333,41.198999999999998,191.90933333333334,385.66466666666668,3.8166666666666673,239.65466666666666,0.30999999999999989,274.83933333333334
2018-11-27,17:30,331.729,263.89499999999992,94251.366666666669,72.935333333333318,279.06666666666666,265.80300000000005,36.184333333333335,171.63799999999998,352.06300000000005,3.9200000000000013,240.86700000000002,0.30999999999999989,274.83933333333340
2018-11-27,18:00,331.749,264.11100000000005,94227.866666666669,73.216999999999999,280.55333333333334,263.83599999999990,46.433999999999997,229.85200000000003,460.06533333333334,3.7866666666666662,246.09999999999999,0.30999999999999989,274.83966666666669
2018-11-27,18:30,331.770,264.22233333333338,94222.166666666672,74.134000000000000,281.20299999999992,263.55100000000004,52.273333333333333,262.20300000000003,513.63500000000022,4.3366666666666669,249.09999999999999,0.30999999999999989,274.83733333333333
2018-11-27,19:00,331.791,264.32700000000000,94217.433333333334,73.723333333333329,281.58299999999997,265.71533333333332,45.308999999999990,227.69966666666667,452.48333333333323,3.6499999999999995,251.75633333333334,0.30999999999999989,274.83700000000010
2018-11-27,19:30,331.812,264.63966666666676,94226.366666666669,72.152000000000001,282.39033333333333,257.32933333333335,48.295333333333346,258.33000000000004,503.78633333333340,4.1800000000000006,256.15533333333332,0.30999999999999989,274.84133333333347
2018-11-27,20:00,331.833,264.52433333333329,94231.199999999997,74.864333333333349,281.22533333333342,269.95600000000002,22.983666666666668,111.02900000000001,223.29799999999994,3.8933333333333326,248.96666666666667,0.30999999999999989,274.83900000000011
2018-11-27,20:30,331.854,264.37233333333330,94249.000000000000,74.855333333333334,279.96700000000004,268.86966666666666,16.915000000000003,81.630666666666670,164.69166666666666,3.4166666666666670,255.19933333333333,0.30999999999999989,274.84000000000003
2018-11-27,21:00,331.874,264.28766666666684,94273.433333333334,74.572333333333319,279.18966666666671,268.40166666666664,14.073333333333334,67.689666666666682,134.93500000000000,3.8666666666666671,255.40000000000001,0.30999999999999989,274.83833333333337
2018-11-27,21:30,331.895,264.07800000000003,94300.866666666669,74.244666666666674,277.85500000000008,266.38333333333327,7.5056666666666683,36.712333333333348,75.782999999999973,4.0899999999999990,242.21099999999998,0.30999999999999989,274.84300000000002
2018-11-27,22:00,331.916,263.78866666666676,94318.266666666663,74.576999999999998,276.20866666666672,265.18266666666665,3.1516666666666668,14.889666666666672,33.739666666666665,3.4999999999999996,241.12300000000002,0.30999999999999989,274.84166666666675
2018-11-27,22:30,331.937,263.46766666666667,94323.500000000000,76.340666666666664,274.59600000000006,261.96100000000001,0.84433333333333316,2.8043333333333327,8.3693333333333353,3.4166666666666670,246.37833333333336,0.30999999999999989,274.84700000000004
2018-11-27,23:00,331.958,263.25200000000007,94338.766666666663,77.932999999999993,273.14699999999999,252.25600000000003,0.31866666666666660,-0.94433333333333325,0.25366666666666665,3.2533333333333325,244.02333333333334,0.30999999999999989,274.84400000000005
2018-11-27,23:30,331.979,262.91266666666667,94339.966666666660,79.055999999999997,268.97833333333330,218.44366666666664,0.78333333333333355,-2.6419999999999999,3.00000000000000006E-003,2.9766666666666670,244.19933333333333,0.30999999999999989,274.84500000000008
2018-11-28,00:00,332.000,262.69766666666669,94341.600000000006,79.628666666666646,271.13533333333339,258.94999999999999,0.45033333333333336,-0.49266666666666664,1.00000000000000002E-003,3.1833333333333340,245.21133333333333,0.30999999999999989,274.84633333333335
